Wind_Speed
40 42 39 41 38 34 34 32 30 20 25 30 29 27 26 25 22 20 18 16 16 14 14 13 12 11 10 7 7 6 7 6 5 11 15 17 20 23 24 22 21 18 32
42 39 40 41 40 39 37 36 33 31 23 26 28 26 27 28 27 25 22 20 19 17 16 15 14 11 11 10 9 11 10 9 10 14 18 21 23 22 22 22 18 27 28
28 35 39 39 39 42 42 39 36 33 31 26 28 30 29 29 29 28 25 23 21 20 18 16 15 15 16 14 13 13 13 13 13 15 20 23 24 23 24 22 27 27 23
28 30 31 36 44 43 43 44 41 37 34 33 29 27 30 29 25 30 27 25 24 23 22 21 20 20 18 17 16 17 17 17 17 18 21 24 25 25 24 26 30 28 25
36 30 34 37 39 40 40 42 44 42 39 37 35 30 27 27 27 30 29 27 26 25 24 24 23 22 23 20 20 21 21 20 20 21 23 25 26 27 28 28 27 26 30
33 36 32 30 32 36 39 40 40 45 44 42 39 37 35 32 30 32 32 31 30 28 27 26 25 24 24 23 23 23 22 23 24 24 25 23 26 28 31 30 26 24 6
29 35 33 36 30 33 36 36 37 39 42 42 45 43 41 41 38 36 35 35 34 32 31 29 29 28 27 26 25 25 25 25 25 25 28 30 31 31 29 28 26 19 21
7 18 18 29 33 29 30 34 38 37 37 37 39 43 44 45 42 37 36 36 36 36 34 33 33 33 31 28 26 26 26 26 26 26 27 29 29 28 28 27 24 22 23
5 5 2 4 3 21 30 32 35 33 34 36 37 37 38 41 44 42 39 37 37 39 39 38 36 35 33 30 29 30 31 32 29 27 28 28 27 27 25 24 24 18 10
16 12 11 10 9 9 19 34 34 31 34 32 33 37 40 41 41 43 43 41 35 38 39 40 39 38 36 33 32 33 34 38 33 31 30 28 27 24 20 19 19 19 17
22 17 11 12 13 18 17 20 32 35 34 30 31 32 34 39 39 40 41 42 36 31 34 36 39 38 37 36 35 36 38 35 34 33 33 33 32 29 25 23 21 20 20
29 27 24 20 14 21 21 21 30 34 31 31 30 28 30 34 37 39 40 39 39 36 31 33 37 37 35 33 30 32 32 32 34 35 36 37 33 31 29 25 20 22 22
25 23 25 23 22 23 27 23 25 29 30 30 27 26 26 27 33 37 38 38 38 42 39 34 36 35 32 29 29 28 27 28 29 31 31 34 33 28 24 22 17 16 18
24 24 22 26 30 18 20 18 17 27 31 31 27 28 26 24 27 30 33 36 37 39 41 40 38 35 33 33 32 31 29 29 30 33 32 30 27 24 24 19 17 16 15
24 22 21 23 28 31 25 22 26 35 37 34 33 31 27 27 32 34 33 34 35 37 37 38 31 32 35 37 38 37 35 31 31 33 33 32 30 28 26 21 18 17 18
18 23 23 17 20 26 28 23 21 32 32 36 34 31 30 35 30 30 33 33 31 29 27 25 24 25 27 28 28 31 32 34 36 37 36 36 35 32 30 24 19 19 21
13 19 22 20 19 18 20 21 16 12 33 33 39 42 37 32 31 32 29 29 31 29 25 24 24 25 27 28 29 29 30 32 29 27 28 29 28 26 23 21 21 21 23
13 16 19 15 20 22 20 18 16 13 12 18 33 40 42 38 35 29 30 28 28 28 29 26 26 29 29 31 30 30 31 29 27 25 23 22 21 21 21 21 23 24 20
12 15 17 15 16 18 21 21 15 13 13 15 20 23 32 36 38 37 31 30 31 29 30 31 32 31 32 32 31 30 28 27 25 23 22 22 22 21 23 23 23 22 21
11 9 13 14 13 13 15 16 17 13 11 14 16 21 22 21 25 31 35 35 33 31 25 23 22 26 27 26 25 26 26 25 24 23 24 24 24 24 25 24 23 20 21
11 8 10 10 9 8 10 10 12 10 7 6 7 12 16 18 17 17 17 17 14 13 10 13 15 14 13 13 15 18 20 24 23 22 21 21 22 24 24 21 16 15 14
9 7 5 5 7 4 5 6 6 4 3 5 5 7 8 16 19 19 18 15 13 9 8 8 7 4 5 5 4 5 5 6 8 9 14 20 20 20 19 17 15 15 14
5 4 3 1 3 2 5 5 5 4 6 10 10 11 11 15 15 15 17 15 15 16 13 14 14 10 7 8 7 9 6 4 4 4 5 6 7 14 15 14 14 13 15
2 1 2 1 4 9 6 7 6 9 11 15 16 17 18 17 18 19 20 22 21 20 18 18 18 16 14 14 16 14 13 11 9 7 5 8 8 2 7 11 9 11 14
7 6 7 8 8 8 8 11 12 11 12 18 19 20 18 20 19 22 24 23 23 23 23 22 18 17 17 19 17 20 16 10 9 10 11 10 11 10 3 2 5 6 7
14 12 14 13 14 12 15 15 13 14 15 20 22 23 21 22 21 21 20 22 24 21 22 21 17 19 17 12 12 17 16 17 14 14 13 13 13 12 10 7 9 7 3
Wind_Direction
205 207 212 217 217 221 228 232 233 245 240 238 237 237 236 234 231 230 232 233 238 238 238 243 252 258 260 262 270 282 284 282 267 308 316 324 325 332 336 343 346 345 344
204 206 212 217 222 221 224 231 233 236 245 242 238 241 244 243 237 235 236 239 238 239 246 246 255 257 263 272 279 269 277 290 289 295 310 317 322 331 336 338 346 333 337
210 204 208 215 220 226 226 228 232 234 237 243 248 246 248 255 242 236 239 241 242 246 251 255 260 268 269 273 273 276 281 288 290 291 301 310 315 324 328 329 330 335 344
206 208 210 213 219 224 230 230 228 232 236 239 244 245 246 248 244 235 239 243 246 249 252 257 262 265 269 268 272 276 281 286 288 291 297 305 311 318 319 322 327 337 340
210 210 214 218 221 222 226 230 231 230 232 236 237 239 243 244 242 235 240 244 248 252 254 256 259 262 263 268 272 276 281 282 287 293 297 301 305 310 314 318 319 328 330
214 218 221 220 218 221 226 228 230 232 232 233 236 239 240 241 242 241 244 247 249 254 258 261 262 262 263 264 265 270 276 277 281 285 288 287 293 302 308 311 315 318 325
222 224 218 218 219 220 226 228 229 232 234 232 235 237 242 243 243 243 244 246 249 253 259 265 269 269 268 268 267 268 267 269 273 279 282 284 290 299 305 307 310 309 305
137 196 206 222 225 224 223 227 232 231 231 232 233 235 237 243 245 244 243 243 247 253 258 264 269 271 271 271 272 272 272 273 273 274 277 283 288 297 298 301 299 301 301
324 315 322 338 337 235 227 226 228 228 230 230 231 231 230 236 241 242 241 242 246 252 259 265 267 268 268 270 271 273 276 277 278 280 282 287 291 295 297 294 288 290 289
343 317 301 304 287 291 256 236 234 227 231 232 231 233 235 235 234 240 241 241 242 249 256 262 264 264 266 268 268 270 273 276 282 285 287 289 295 296 291 281 281 275 276
344 346 330 301 262 255 278 274 237 230 230 231 231 231 233 237 237 239 241 237 235 243 249 253 260 262 264 264 266 268 269 280 283 285 286 289 292 290 284 279 275 269 264
351 352 350 330 298 266 271 276 243 227 224 229 227 229 229 233 239 241 241 239 240 236 239 250 259 263 267 269 270 271 274 276 275 276 279 282 283 285 291 293 280 268 270
345 345 344 333 316 274 271 256 236 223 220 224 225 224 228 227 232 240 244 243 243 241 244 247 257 265 271 272 271 273 276 271 269 269 270 273 278 285 291 290 284 266 267
341 344 339 325 322 298 277 263 253 223 220 222 217 223 226 225 227 232 237 240 243 245 246 249 255 259 263 267 269 269 267 268 267 268 270 274 278 280 283 283 271 265 261
326 332 338 330 329 318 331 301 244 227 218 214 219 220 216 220 223 227 231 235 239 242 245 248 248 254 259 261 263 265 264 260 256 260 261 264 268 272 276 278 263 258 248
322 324 327 321 328 323 317 314 246 233 233 233 228 225 227 231 233 232 235 240 247 244 233 230 236 239 244 250 250 257 261 261 259 256 256 261 264 266 269 264 252 249 250
310 314 313 327 323 313 307 308 315 269 236 235 237 235 234 238 236 239 239 239 236 235 223 227 228 232 238 243 246 248 251 258 264 260 262 260 260 258 253 249 247 244 252
308 313 302 317 313 309 308 299 299 292 289 262 240 236 237 237 240 240 239 233 229 233 230 228 232 237 240 246 249 250 258 262 259 257 253 251 249 244 242 244 247 242 242
317 315 307 306 299 298 310 303 299 292 280 275 270 250 246 243 239 238 234 234 234 237 242 242 242 241 243 246 251 258 260 263 259 253 249 249 247 242 245 247 249 252 250
311 318 314 316 295 300 305 308 310 304 313 291 268 262 250 240 240 240 238 238 240 246 249 252 257 254 252 254 258 260 257 252 249 251 257 255 249 237 235 243 248 240 233
305 316 313 312 302 308 312 317 310 316 351 325 289 267 250 236 234 228 210 198 194 188 199 208 213 211 219 227 236 244 250 255 250 245 243 243 242 246 246 235 235 240 223
295 304 315 300 295 304 332 331 311 315 18 38 35 64 167 166 165 164 166 161 162 161 176 168 149 146 185 194 212 203 232 254 259 245 246 234 230 233 231 220 222 214 221
314 300 292 284 270 74 51 32 4 33 61 64 72 70 90 110 123 134 137 133 132 129 123 125 119 98 75 81 88 76 61 14 332 310 309 302 243 212 210 206 208 210 221
36 4 271 30 45 64 61 51 28 52 72 77 86 83 75 83 98 104 101 105 105 106 105 98 95 87 83 70 60 63 56 42 2 350 0 356 316 219 216 205 216 236 249
68 71 63 50 48 65 68 62 44 45 66 75 76 86 92 95 86 95 101 101 100 99 95 93 86 88 65 58 52 46 43 44 32 19 15 4 343 330 308 264 240 228 239
70 69 73 71 66 68 78 77 60 51 54 71 79 85 85 94 92 93 96 99 94 86 87 86 84 74 81 71 74 70 46 29 46 38 25 14 2 346 336 2 334 307 294
Height
799 803 810 815 819 825 830 835 838 841 843 845 847 850 853 855 857 858 860 861 861 861 862 863 863 863 863 864 864 864 864 863 862 860 858 857 855 853 851 848 845 843 840
792 798 803 809 815 818 822 828 833 837 839 842 844 846 849 851 854 855 857 858 859 860 860 861 861 862 861 862 862 862 862 861 861 858 856 854 853 852 850 847 845 842 839
796 795 797 804 808 813 816 820 826 831 835 838 840 842 844 847 849 851 853 855 856 857 858 859 859 859 859 859 860 860 860 859 858 856 853 852 850 849 847 846 844 841 838
789 794 796 797 800 805 811 814 818 824 829 833 836 837 840 842 843 846 849 851 853 854 855 856 856 856 856 857 857 857 857 857 856 854 852 850 849 848 847 845 841 839 836
781 788 789 792 796 799 804 808 811 815 820 825 830 833 836 838 839 842 844 846 848 849 850 851 852 852 853 853 853 854 855 854 853 852 850 848 846 845 844 843 840 837 834
777 780 786 790 792 793 796 802 805 808 811 816 821 826 829 832 834 837 840 841 843 845 845 846 847 847 847 848 849 850 851 850 850 849 847 846 843 843 841 840 838 836 832
772 775 781 785 788 788 791 795 800 802 805 807 812 817 820 825 828 831 834 836 838 839 840 841 841 842 842 843 844 844 845 846 846 845 843 841 840 839 838 836 834 833 830
769 773 778 781 783 785 786 788 792 796 798 801 804 807 811 815 820 824 828 830 831 832 833 834 835 835 836 838 839 838 838 838 839 839 838 836 836 835 834 833 831 829 826
772 773 773 773 775 778 780 782 783 789 791 792 795 799 802 805 810 815 820 823 824 824 826 827 829 829 829 832 833 832 832 830 832 833 832 832 831 830 829 827 825 825 823
774 772 768 768 769 773 774 777 780 782 783 785 787 789 793 796 800 805 809 813 815 816 818 819 820 821 823 825 826 826 825 823 826 826 825 825 825 823 823 822 821 820 820
770 765 763 763 764 767 769 772 774 774 776 780 781 782 784 787 791 795 799 802 805 809 810 810 811 813 814 817 818 819 817 819 820 820 818 817 816 815 815 815 815 815 814
759 754 750 751 757 761 761 764 765 766 769 773 774 775 776 779 783 786 789 793 797 799 800 801 803 805 806 808 811 811 812 813 813 812 811 809 808 807 807 806 807 808 808
770 762 757 758 755 757 757 754 756 758 762 765 768 768 769 772 774 777 780 784 788 791 793 794 796 799 801 802 803 804 805 805 805 804 803 801 801 802 801 801 801 802 802
767 761 757 756 753 757 754 742 742 748 753 757 757 758 761 765 767 769 772 776 780 782 785 788 791 793 794 794 794 795 797 798 798 797 795 795 796 796 796 796 796 797 797
768 762 755 750 747 741 729 732 735 737 740 743 745 748 751 754 755 759 762 764 768 772 778 782 783 784 784 784 785 787 788 789 788 788 789 789 789 790 790 791 792 793 793
763 759 755 753 749 741 736 733 729 732 733 736 738 742 742 744 748 753 756 758 761 765 769 771 773 774 774 774 775 775 776 776 776 778 778 779 779 780 781 783 785 787 787
763 760 755 744 746 747 744 736 729 726 725 729 732 736 738 738 742 746 749 753 756 759 759 761 763 763 763 764 765 766 766 766 768 769 769 769 770 771 773 775 778 780 780
757 754 754 742 743 743 741 740 732 729 724 720 723 726 729 732 736 740 743 746 748 748 750 752 752 753 753 754 756 756 757 758 760 760 760 760 762 764 766 768 770 772 775
749 748 748 741 742 742 739 733 729 724 721 719 720 718 721 724 728 733 736 737 737 738 740 742 743 744 744 745 746 748 749 749 751 753 753 753 754 756 759 761 762 765 768
745 743 744 738 739 740 737 733 728 722 712 715 716 715 716 718 721 723 725 727 729 731 732 734 736 737 738 739 740 741 742 741 741 743 746 747 747 747 748 751 754 755 757
741 738 740 737 739 737 734 731 728 722 716 715 715 712 710 711 714 718 720 720 723 725 726 728 730 731 732 733 734 735 737 736 737 734 736 738 740 743 743 743 745 749 750
737 736 738 740 741 737 733 730 730 726 722 718 715 712 710 707 711 714 715 715 715 720 724 726 727 730 730 730 731 729 731 734 735 735 734 732 731 735 735 736 738 741 746
732 735 739 741 742 734 730 731 730 726 721 718 716 716 715 712 714 717 716 716 717 718 725 724 725 731 735 732 733 727 728 731 736 735 734 732 730 729 729 730 734 736 739
733 738 742 739 736 725 731 732 733 729 723 719 718 719 720 721 722 722 723 720 722 725 728 728 729 734 739 739 732 728 728 728 736 734 731 731 732 729 728 729 732 735 736
734 738 735 732 729 728 729 729 732 732 730 723 722 723 726 724 727 725 724 726 727 729 729 730 735 732 736 731 734 731 733 736 736 734 732 732 734 735 732 732 733 731 731
734 738 734 735 729 732 729 733 737 738 735 728 723 726 729 730 730 730 732 730 729 735 733 733 739 733 731 741 738 731 739 741 732 729 734 736 736 738 740 729 735 737 730